Date,TemperatureHighF,TemperatureAvgF,TemperatureLowF,DewpointHighF,DewpointAvgF,DewpointLowF,HumidityHigh,HumidityAvg,HumidityLow,PressureMaxIn,PressureMinIn,WindSpeedMaxMPH,WindSpeedAvgMPH,GustSpeedMaxMPH,PrecipitationSumIn
2013-1-1,23,15,7,11,2,-6,65,54,40,0.00,40.00,21,12,27,0.00
2013-1-2,21,15,5,6,0,-10,59,50,40,0.00,40.00,24,11,31,0.00
2013-1-3,24,15,5,2,-5,-11,47,40,36,0.00,40.00,27,19,35,0.00
2013-1-4,28,19,14,3,-3,-7,39,36,32,0.00,40.00,29,19,37,0.00
2013-1-5,27,18,10,4,-3,-10,44,38,33,0.00,40.00,23,16,31,0.00
2013-1-6,38,27,19,9,2,-2,39,33,25,0.00,40.00,31,20,39,0.00
2013-1-7,35,26,19,7,2,-3,41,35,28,0.00,40.00,27,18,34,0.00
2013-1-8,38,30,23,13,10,5,53,42,34,0.00,40.00,26,16,34,0.00
2013-1-9,45,35,26,16,12,7,52,39,26,0.00,40.00,35,24,46,0.00
2013-1-10,47,39,27,9,6,4,42,25,19,0.00,40.00,39,20,50,0.00
2013-1-11,29,8,0,15,-2,-10,70,62,42,0.00,40.00,29,14,36,0.00
2013-1-12,7,2,-4,-6,-10,-14,61,58,52,0.00,40.00,10,5,13,0.00
2013-1-13,8,-1,-9,-9,-13,-19,61,55,43,0.00,40.00,15,6,18,0.00
2013-1-14,8,-1,-9,-9,-14,-19,59,51,44,0.00,40.00,26,16,30,0.00
2013-1-15,20,13,2,3,-3,-14,49,47,44,0.00,40.00,29,21,37,0.00
2013-1-16,33,22,15,10,4,0,49,44,37,0.00,40.00,31,21,39,0.00
2013-1-17,37,26,18,9,3,0,45,37,29,0.00,40.00,29,20,34,0.00
2013-1-18,44,31,19,7,3,-1,40,30,20,0.00,40.00,30,15,37,0.00
2013-1-19,44,30,19,5,2,-3,37,30,18,0.00,40.00,25,15,32,0.00
2013-1-20,29,24,18,11,6,0,65,46,33,0.00,40.00,22,10,27,0.00
2013-1-21,44,30,17,8,4,1,50,34,18,0.00,40.00,26,16,34,0.00
2013-1-22,48,34,23,4,2,-1,35,26,14,0.00,40.00,29,16,36,0.00
2013-1-23,51,39,33,5,2,0,26,21,14,0.00,40.00,29,20,37,0.00
2013-1-24,48,39,27,18,11,2,56,31,21,0.00,40.00,32,17,41,0.00
2013-1-25,48,35,22,17,14,10,64,44,23,0.00,40.00,30,10,39,0.00
2013-1-26,51,39,28,21,17,12,55,40,28,0.00,40.00,30,15,36,0.00
2013-1-27,44,36,28,21,20,18,72,52,36,0.00,40.00,17,9,21,0.00
2013-1-28,29,24,13,21,14,4,72,66,53,0.00,40.00,16,8,19,0.00
2013-1-29,23,13,4,6,-2,-9,65,53,33,0.00,40.00,23,12,27,0.00
2013-1-30,31,18,-3,12,2,-13,67,49,35,0.00,40.00,21,14,30,0.00
2013-1-31,34,25,12,12,8,2,65,49,35,0.00,40.00,16,8,21,0.00